Flag for U.S.A. Weather past 2 weeks in Louisville, Kentucky, U.S.A.

Now
34 °F

Passing clouds.


Feels Like: 30 °F
Forecast: 31 / 59 °F
Wind: 5 mph from East

Location: Standiford Field

Current Time: Mar 2, 2015 at 10:39:51 PM

Latest Report: Mar 2, 2015 at 9:56 PM


Visibility: 10 mi

Pressure: 30.36 "Hg

Humidity: 50%

Dew point: 17 °F

Location of LouisvilleLocation

Historic Weather in Louisville — Graph

°F

Louisville temperature yesterday

Maximum temperature yesterday: 42 °F (at 2:56 PM)
Minimum temperature yesterday: 30 °F (at 1:56 AM)
Average temperature yesterday: 35 °F

Past Weeks' High & Low Weather Summary

 TemperatureHumidityPressure
High42 °F (Mar 1, 2:56 PM)100% (Feb 17, 9:56 AM)30.73 "Hg (Feb 17, 9:56 AM)
Low-5 °F (Feb 20, 3:56 AM)33% (Feb 24, 4:56 PM)29.81 "Hg (Feb 18, 6:03 AM)
Average23 °F65%30.26 "Hg
* Reported Feb 15 8:56 PM — Mar 2 8:56 PM, Louisville, Weather by CustomWeather, © 2015

Note: Actual official high and low records may vary slightly from our data, if they occured in-between our weather recording intervals... More about our weather records

Advertising

Louisville weather history for previous 24 hours

 ConditionsComfort  
Time TempWeatherWind HumidityBarometerVisibility
8:56 PM
Mon, Mar 2
35 °FPassing clouds.8 mph48%30.37 "Hg10 mi
7:56 PM36 °FPartly cloudy.9 mph50%30.41 "Hg10 mi
6:56 PM36 °FPartly cloudy.6 mph50%30.42 "Hg10 mi
5:56 PM38 °FPartly sunny.6 mph43%30.43 "Hg10 mi
4:56 PM39 °FPartly sunny.8 mph38%30.43 "Hg10 mi
3:56 PM40 °FPartly sunny.8 mph35%30.44 "Hg10 mi
2:56 PM40 °FPartly sunny.3 mph35%30.45 "Hg10 mi
1:56 PM39 °FBroken clouds.No wind38%30.48 "Hg10 mi
12:56 PM37 °FMore clouds than sun.7 mph42%30.51 "Hg10 mi
11:56 AM36 °FPartly sunny.5 mph46%30.54 "Hg9 mi
10:56 AM32 °FPartly sunny.7 mph52%30.55 "Hg9 mi
9:56 AM31 °FPartly sunny.5 mph57%30.56 "Hg8 mi
8:56 AM29 °FPartly sunny.8 mph61%30.55 "Hg8 mi
7:56 AM27 °FPartly sunny.8 mph69%30.54 "Hg7 mi
6:56 AM25 °FPassing clouds.8 mph78%30.52 "Hg8 mi
5:56 AM26 °FPassing clouds.7 mph77%30.50 "Hg8 mi
4:56 AM27 °FPassing clouds.12 mph78%30.48 "Hg8 mi
3:56 AM29 °FPassing clouds.12 mph75%30.45 "Hg9 mi
2:56 AM31 °FPassing clouds.10 mph76%30.42 "Hg9 mi
2:04 AM32 °FPartly cloudy.10 mph75%30.40 "Hg10 mi
1:56 AM33 °FPassing clouds.12 mph72%30.41 "Hg9 mi
12:56 AM33 °FOvercast.13 mph82%30.40 "Hg7 mi
11:56 PM
Sun, Mar 1
34 °FOvercast.13 mph82%30.39 "Hg7 mi
10:56 PM35 °FFog.10 mph85%30.37 "Hg5 mi
Weather by CustomWeather, © 2015

See weather overviewHow to use our weather pages